TimeMDT,TemperatureF,Dew PointF,Humidity,Sea Level PressureIn,VisibilityMPH,Wind Direction,Wind SpeedMPH,Gust SpeedMPH,PrecipitationIn,Events,Conditions,WindDirDegrees,DateUTC
12:53 AM,46.9,35.1,63,30.05,10.0,West,11.5,-,N/A,,Mostly Cloudy,260,2013-10-22 06:53:00
1:53 AM,48.0,35.1,61,30.07,10.0,WNW,12.7,-,N/A,,Mostly Cloudy,290,2013-10-22 07:53:00
2:53 AM,48.0,35.1,61,30.06,10.0,WNW,8.1,-,N/A,,Scattered Clouds,290,2013-10-22 08:53:00
3:53 AM,48.0,36.0,63,30.06,10.0,WNW,6.9,-,N/A,,Overcast,300,2013-10-22 09:53:00
4:53 AM,46.9,37.0,68,30.07,10.0,WNW,6.9,-,N/A,,Overcast,290,2013-10-22 10:53:00
5:53 AM,48.0,36.0,63,30.09,10.0,WNW,10.4,-,N/A,,Overcast,290,2013-10-22 11:53:00
6:53 AM,48.0,36.0,63,30.10,10.0,WNW,11.5,-,N/A,,Overcast,290,2013-10-22 12:53:00
7:53 AM,48.9,36.0,61,30.12,10.0,West,12.7,-,N/A,,Overcast,280,2013-10-22 13:53:00
8:53 AM,51.1,37.0,59,30.12,10.0,WNW,15.0,-,N/A,,Overcast,290,2013-10-22 14:53:00
9:53 AM,55.9,37.9,51,30.12,10.0,WNW,16.1,-,N/A,,Overcast,300,2013-10-22 15:53:00
10:53 AM,61.0,37.0,41,30.11,10.0,NW,16.1,26.5,N/A,,Overcast,320,2013-10-22 16:53:00
11:53 AM,63.0,36.0,37,30.10,10.0,NW,18.4,29.9,N/A,,Clear,320,2013-10-22 17:53:00
12:53 PM,66.0,37.0,34,30.06,10.0,NNW,19.6,27.6,N/A,,Partly Cloudy,340,2013-10-22 18:53:00
1:53 PM,64.0,36.0,35,30.06,10.0,NNW,21.9,28.8,N/A,,Partly Cloudy,330,2013-10-22 19:53:00
2:53 PM,66.0,35.1,32,30.05,10.0,NNW,17.3,27.6,N/A,,Partly Cloudy,330,2013-10-22 20:53:00
3:53 PM,66.0,34.0,30,30.05,10.0,NNW,18.4,25.3,N/A,,Partly Cloudy,340,2013-10-22 21:53:00
4:53 PM,64.0,35.1,34,30.06,10.0,NNW,11.5,-,N/A,,Clear,340,2013-10-22 22:53:00
5:53 PM,57.0,36.0,45,30.07,10.0,North,4.6,-,N/A,,Clear,360,2013-10-22 23:53:00
6:53 PM,51.1,37.0,59,30.09,10.0,Calm,Calm,-,N/A,,Clear,0,2013-10-23 00:53:00
7:53 PM,48.0,35.1,61,30.10,10.0,ESE,3.5,-,N/A,,Clear,110,2013-10-23 01:53:00
8:53 PM,42.1,35.1,76,30.12,10.0,ESE,5.8,-,N/A,,Clear,120,2013-10-23 02:53:00
9:53 PM,42.1,35.1,76,30.12,10.0,SSE,5.8,-,N/A,,Clear,160,2013-10-23 03:53:00
10:53 PM,39.9,35.1,83,30.11,10.0,SE,6.9,-,N/A,,Clear,130,2013-10-23 04:53:00
11:53 PM,41.0,35.1,79,30.11,10.0,South,10.4,-,N/A,,Clear,180,2013-10-23 05:53:00